Johnstown, PA

5:42 AM EDT on September 28, 2016 (GMT -0400)
Johnstown-Cambria County

Weather History for KJST - March, 2012

Change the Weather History Date:

Monday, March 5, 2012

  Actual Average Record
Temperature  
Mean Temperature 22 °F 32 °F  
Max Temperature 24 °F 39 °F 78 °F (1992)
Min Temperature 19 °F 24 °F 3 °F (2015)
Degree Days  
Heating Degree Days 44 33  
Month to date heating degree days 170  
Since 1 July heating degree days 5049  
Cooling Degree Days 0 0  
Month to date cooling degree days 0  
Year to date cooling degree days 0  
Moisture  
Dew Point 18 °F    
Average Humidity 85    
Maximum Humidity 100    
Minimum Humidity 63    
Precipitation  
Precipitation 0.04 in 0.08 in 2.50 in (1967)
Month to date precipitation 0.37  
Year to date precipitation 5.60  
Sea Level Pressure  
Sea Level Pressure 30.01 in    
Wind  
Wind Speed 8 mph (WNW)    
Max Wind Speed 22 mph    
Max Gust Speed 31 mph    
Visibility 4 miles    
Events Fog , Snow    
T = Trace of Precipitation, MM = Missing Value Source: NWS Daily Summary

Daily Weather History Graph

Daily Weather History Graph

Search for Another Location

Airport or City:

Trip Planner

Search our weather history database for the weather conditions in past years. The results will help you decide how hot, cold, wet, or windy it might be!

Date:

Astronomy

Mar. 05, 2012 Rise Set
Actual Time 6:42 AM EST 6:11 PM EST
Civil Twilight 6:14 AM EST 6:39 PM EST
Nautical Twilight 5:43 AM EST 7:10 PM EST
Astronomical Twilight 5:11 AM EST 7:42 PM EST
Moon 3:27 PM EST (3/5) 4:40 AM EST (3/5)
Length of Visible Light 12h 24m
Length of Day
11h 29m
Waxing Gibbous, 91% of the Moon is Illuminated
Mar 5
Waxing Gibbous
Mar 8
Full
Mar 14
Last Quarter
Mar 22
New
Mar 30
First Quarter

Hourly Weather History & Observations

Time (EST) Temp. Windchill Dew Point Humidity Pressure Visibility Wind Dir Wind Speed Gust Speed Precip Events Conditions
12:00 AM 23.0 °F 13.1 °F 21.2 °F 93% 29.77 in 3.0 mi West 9.2 mph - 0.00 in Snow Light Snow
12:32 AM 23.0 °F 14.7 °F 21.2 °F 93% 29.77 in 1.8 mi West 6.9 mph - 0.00 in Snow Light Snow
12:46 AM 23.0 °F 13.9 °F 21.2 °F 93% 29.77 in 3.0 mi West 8.1 mph - 0.00 in Snow Light Snow
12:54 AM 23.0 °F 13.9 °F 21.0 °F 92% 29.85 in 4.0 mi West 8.1 mph - 0.00 in Snow Light Snow
1:04 AM 23.0 °F 13.9 °F 21.2 °F 93% 29.77 in 2.5 mi West 8.1 mph - 0.00 in Snow Light Snow
1:08 AM 23.0 °F 13.9 °F 21.2 °F 93% 29.77 in 3.0 mi West 8.1 mph - 0.00 in Snow Light Snow
1:22 AM 23.0 °F 13.9 °F 21.2 °F 93% 29.77 in 4.0 mi West 8.1 mph - 0.00 in Snow Light Snow
1:36 AM 23.0 °F 14.7 °F 21.2 °F 93% 29.77 in 1.8 mi West 6.9 mph - 0.00 in Snow Light Snow
1:52 AM 23.0 °F 17.0 °F 21.2 °F 93% 29.78 in 1.5 mi WSW 4.6 mph - 0.00 in Snow Light Snow
1:54 AM 23.0 °F 17.0 °F 21.9 °F 96% 29.86 in 2.0 mi WSW 4.6 mph - 0.00 in Snow Light Snow
2:04 AM 23.0 °F 17.0 °F 21.2 °F 93% 29.78 in 3.0 mi SW 4.6 mph - 0.00 in Snow Light Snow
2:39 AM 23.0 °F 14.7 °F 21.2 °F 93% 29.77 in 1.8 mi West 6.9 mph - 0.00 in Snow Light Snow
2:54 AM 23.0 °F 15.8 °F 21.9 °F 96% 29.85 in 1.2 mi WSW 5.8 mph - 0.00 in Snow Light Snow
3:01 AM 23.0 °F 15.8 °F 21.2 °F 93% 29.77 in 1.0 mi WSW 5.8 mph - 0.01 in Snow Light Snow
3:08 AM 23.0 °F 17.0 °F 23.0 °F 100% 29.77 in 0.8 mi WSW 4.6 mph - 0.01 in Snow Light Snow
3:19 AM 23.0 °F 14.7 °F 23.0 °F 100% 29.77 in 1.8 mi WSW 6.9 mph - 0.01 in Snow Light Snow
3:26 AM 23.0 °F 15.8 °F 21.2 °F 93% 29.77 in 2.5 mi WSW 5.8 mph - 0.01 in Snow Light Snow
3:47 AM 23.0 °F 14.7 °F 21.2 °F 93% 29.78 in 4.0 mi SW 6.9 mph - 0.01 in Snow Light Snow
3:54 AM 23.0 °F 14.7 °F 21.9 °F 96% 29.86 in 6.0 mi SW 6.9 mph - 0.01 in   Overcast
4:54 AM 23.0 °F 15.8 °F 21.0 °F 92% 29.88 in 7.0 mi WSW 5.8 mph - 0.00 in   Overcast
5:54 AM 21.9 °F 14.5 °F 19.9 °F 92% 29.90 in 9.0 mi West 5.8 mph - N/A   Overcast
6:07 AM 21.2 °F 14.9 °F 19.4 °F 93% 29.81 in 7.0 mi WSW 4.6 mph - 0.00 in Snow Light Snow
6:54 AM 21.9 °F 14.5 °F 19.9 °F 92% 29.93 in 3.0 mi WSW 5.8 mph - 0.00 in Snow Light Snow
7:19 AM 23.0 °F 18.4 °F 19.4 °F 86% 29.85 in 2.5 mi WNW 3.5 mph - 0.01 in Snow Light Snow
7:27 AM 23.0 °F 17.0 °F 19.4 °F 86% 29.86 in 1.8 mi West 4.6 mph - 0.01 in Snow Light Snow
7:35 AM 23.0 °F 15.8 °F 19.4 °F 86% 29.86 in 2.0 mi West 5.8 mph - 0.01 in Snow Light Snow
7:43 AM 23.0 °F 18.4 °F 19.4 °F 86% 29.87 in 1.2 mi West 3.5 mph - 0.01 in Snow Light Snow
7:54 AM 23.0 °F 18.4 °F 21.0 °F 92% 29.97 in 1.0 mi West 3.5 mph - 0.01 in Snow Light Snow
8:52 AM 23.0 °F 13.9 °F 19.4 °F 86% 29.91 in 1.8 mi North 8.1 mph - 0.02 in Snow Light Snow
8:54 AM 21.9 °F 11.7 °F 19.9 °F 92% 30.01 in 2.5 mi North 9.2 mph - 0.02 in Snow Light Snow
9:00 AM 21.2 °F 12.6 °F 19.4 °F 93% 29.92 in 3.0 mi North 6.9 mph - 0.00 in Snow Light Snow
9:22 AM 21.2 °F 11.7 °F 19.4 °F 93% 29.93 in 1.8 mi North 8.1 mph - 0.00 in Snow Light Snow
9:33 AM 23.0 °F 14.7 °F 19.4 °F 86% 29.93 in 1.2 mi North 6.9 mph - 0.00 in Snow Light Snow
9:46 AM 23.0 °F 15.8 °F 19.4 °F 86% 29.94 in 2.5 mi NNW 5.8 mph - 0.00 in Snow Light Snow
9:54 AM 23.0 °F 14.7 °F 19.9 °F 88% 30.04 in 1.0 mi NW 6.9 mph - 0.00 in Snow Light Snow
10:10 AM 23.0 °F 13.9 °F 19.4 °F 86% 29.96 in 1.0 mi NNW 8.1 mph - 0.00 in Snow Light Snow
10:54 AM 23.0 °F 13.9 °F 19.9 °F 88% 30.07 in 1.2 mi NW 8.1 mph - 0.00 in Snow Light Snow
11:22 AM 23.0 °F 13.1 °F 19.4 °F 86% 30.00 in 0.8 mi WNW 9.2 mph 17.3 mph 0.00 in Snow Light Snow
11:29 AM 23.0 °F 12.4 °F 19.4 °F 86% 30.01 in 1.0 mi WNW 10.4 mph - 0.00 in Snow Light Snow
11:37 AM 21.2 °F 8.9 °F 19.4 °F 93% 30.01 in 0.5 mi NW 12.7 mph - 0.00 in Fog , Snow Snow
11:54 AM 23.0 °F 11.7 °F 19.9 °F 88% 30.12 in 0.5 mi WNW 11.5 mph - 0.00 in Fog , Snow Snow
12:03 PM 21.2 °F 10.9 °F 19.4 °F 93% 30.02 in 0.8 mi WNW 9.2 mph - 0.00 in Snow Light Snow
12:15 PM 23.0 °F 11.7 °F 19.4 °F 86% 30.03 in 0.5 mi WNW 11.5 mph - 0.00 in Fog , Snow Snow
12:18 PM 23.0 °F 11.1 °F 19.4 °F 86% 30.03 in 1.0 mi WNW 12.7 mph - 0.00 in Snow Light Snow
12:27 PM 21.2 °F 8.9 °F 19.4 °F 93% 30.03 in 3.0 mi WNW 12.7 mph - 0.00 in Snow Light Snow
12:36 PM 23.0 °F 13.1 °F 19.4 °F 86% 30.04 in 1.8 mi WNW 9.2 mph - 0.00 in Snow Light Snow
12:46 PM 23.0 °F 13.1 °F 19.4 °F 86% 30.04 in 1.2 mi WNW 9.2 mph - 0.00 in Snow Light Snow
12:54 PM 24.1 °F 11.5 °F 19.9 °F 84% 30.14 in 2.5 mi WNW 15.0 mph 20.7 mph 0.00 in Snow Light Snow
1:02 PM 24.8 °F 12.4 °F 19.4 °F 80% 30.05 in 6.0 mi WNW 15.0 mph 23.0 mph 0.00 in Snow Light Snow
1:39 PM 24.8 °F 12.4 °F 17.6 °F 74% 30.05 in 9.0 mi WNW 15.0 mph - 0.00 in   Overcast
1:54 PM 24.1 °F 13.1 °F 17.1 °F 75% 30.16 in 5.0 mi WNW 11.5 mph - 0.00 in Snow Light Snow
2:04 PM 24.8 °F 14.0 °F 17.6 °F 74% 30.07 in 2.5 mi WNW 11.5 mph 20.7 mph 0.00 in Snow Light Snow
2:11 PM 24.8 °F 15.3 °F 17.6 °F 74% 30.07 in 8.0 mi WNW 9.2 mph - 0.00 in Snow Light Snow
2:54 PM 24.1 °F 12.0 °F 15.1 °F 69% 30.19 in 10.0 mi WNW 13.8 mph - 0.00 in   Overcast
3:38 PM 23.0 °F 7.6 °F 12.2 °F 63% 30.11 in 10.0 mi WNW 21.9 mph 31.1 mph 0.00 in   Mostly Cloudy
3:54 PM 23.0 °F 7.6 °F 12.9 °F 65% 30.23 in 9.0 mi WNW 21.9 mph 28.8 mph 0.00 in   Mostly Cloudy
4:54 PM 21.9 °F 8.2 °F 12.0 °F 66% 30.27 in 10.0 mi WNW 16.1 mph 24.2 mph N/A   Mostly Cloudy
5:54 PM 21.9 °F 10.4 °F 12.0 °F 66% 30.31 in 10.0 mi WNW 11.5 mph - N/A   Overcast
6:27 PM 21.2 °F 6.4 °F 14.0 °F 74% 30.22 in 2.5 mi WNW 18.4 mph 21.9 mph 0.00 in Snow Light Snow
6:41 PM 21.2 °F 8.3 °F 15.8 °F 80% 30.22 in 5.0 mi WNW 13.8 mph - 0.00 in Snow Light Snow
6:54 PM 21.0 °F 7.1 °F 12.9 °F 71% 30.34 in 10.0 mi WNW 16.1 mph - 0.00 in   Mostly Cloudy
7:54 PM 21.0 °F 6.6 °F 12.0 °F 68% 30.38 in 10.0 mi NW 17.3 mph 23.0 mph N/A   Overcast
8:54 PM 19.9 °F 6.7 °F 12.0 °F 71% 30.42 in 10.0 mi WNW 13.8 mph - N/A   Overcast
9:54 PM 19.9 °F 7.9 °F 10.9 °F 68% 30.43 in 10.0 mi WNW 11.5 mph - N/A   Overcast
10:34 PM 19.4 °F 6.6 °F 10.4 °F 68% 30.33 in 10.0 mi WNW 12.7 mph - N/A   Overcast
10:54 PM 19.0 °F 7.5 °F 12.0 °F 74% 30.45 in 10.0 mi WNW 10.4 mph - N/A   Overcast
11:09 PM 19.4 °F 7.2 °F 12.2 °F 74% 30.33 in 10.0 mi WNW 11.5 mph - N/A   Overcast
11:30 PM 19.4 °F 11.5 °F 12.2 °F 74% 30.34 in 9.0 mi West 5.8 mph - N/A   Overcast
11:54 PM 19.9 °F 12.1 °F 14.0 °F 78% 30.46 in 5.0 mi West 5.8 mph - 0.00 in Snow Light Snow